Regional Weather Roundup
Issued by NWS

Home | Current Version | Previous Version | Graphics & Text | Print | Product List | Glossary On
Versions: 1 2 3 4 5 6 7 8 9 10 11 12 13 14 15 16 17 18 19 20 21 22 23 24 25 26 27 28 29 30 31 32 33 34 35 36 37 38 39 40 41 42 43 44 45 46 47 48 49 50
000
ASUS45 KSLC 032010
RWRUT

UTAH REGIONAL WEATHER ROUNDUP
NATIONAL WEATHER SERVICE SALT LAKE CITY UT
100 PM MST TUE MAR 03 2015

UTZ001>011-023>025-032100-

NORTHERN UTAH

CITY           SKY/WX    TMP DP  RH WIND       PRES   REMARKS
BRIGHAM CITY   PTSUNNY   35  24  64 N10       29.89R WCI  27
HILL AFB       MOSUNNY   33  27  79 NW9       29.87R WCI  25
LOGAN            N/A     31  21  66 N8        29.88R WCI  23
OGDEN            N/A     33  25  72 NW7       29.87R WCI  27
PROVO AIRPORT  CLOUDY    34  27  75 NW16G23   29.86S WCI  23
SALT LAKE CITY   N/A     35  25  66 NW14      29.88S WCI  26
VERNAL         PTSUNNY   35  27  72 CALM      29.73F
WENDOVER         N/A     39  14  35 NW15G28   29.91F WCI  31
HEBER CITY     FLURRIES  32  23  69 N6        29.80R WCI  26
WEST JORDAN    CLOUDY    32  28  86 NW10      29.88S WCI  24

$$

UTZ012>022-026-027-032100-

SOUTHERN/CENTRAL UTAH

CITY           SKY/WX    TMP DP  RH WIND       PRES   REMARKS
BLANDING       CLOUDY    33  30  89 NW7       29.90F WCI  26
BRYCE CANYON   FLURRIES  28  22  78 SW6       29.81F WCI  22
CEDAR CITY     PTSUNNY   36  28  73 S12       29.83F WCI  28
DELTA          CLOUDY    33  30  89 NW9       29.88R WCI  25
HANKSVILLE       N/A     48  25  40 SW14      29.80F
MILFORD        CLOUDY    40  28  62 S16       29.82F WCI  31
MOAB/CYNLANDS  CLOUDY    45  32  60 NW17      29.74F
PRICE          PTSUNNY   36  25  64 E6        29.75F WCI  31
ST GEORGE      MOCLDY    46  37  71 W6        29.91F
KANAB            N/A     43  30  61 W10       29.90F

$$

REGIONAL REPORTS     COLORADO/ARIZONA

CITY           SKY/WX    TMP DP  RH WIND       PRES   REMARKS
CRAIG, CO        N/A    N/A N/A N/A MISG      29.70F
GRAND JUNCTION CLOUDY    40  28  62 CALM      29.76F
RIFLE          LGT SNOW  37  29  72 SW13      29.73F WCI  29
MONTROSE       PTSUNNY   38  26  62 SW18G26   29.78F WCI  28
CORTEZ         CLOUDY    38  31  76 S6        29.83F WCI  33
PAGE, AZ       PTSUNNY   46  28  49 SW7       29.84F
GRAND CANYON   MIX PCPN  32  25  75 SW8       29.89F WCI  25
KINGMAN        CLOUDY    48  35  60 NW10      29.92F
FLAGSTAFF      NOT AVBL

$$

REGIONAL REPORTS    NEVADA/IDAHO/WYOMING

CITY           SKY/WX    TMP DP  RH WIND       PRES   REMARKS
LAS VEGAS, NV    N/A     57  34  41 CALM      29.87F
ELY            CLOUDY    28  16  60 N13       29.90R WCI  17
ELKO             N/A     34  14  43 NW9       29.97S WCI  27
POCATELLO, ID    N/A     27   9  46 NE13      29.95S WCI  16
BURLEY         CLOUDY    31  21  66 CALM      29.94F
EVANSTON, WY   CLOUDY    27  17  66 W13       29.76S WCI  16
ROCK SPRINGS   LGT SNOW  15  11  83 E14       29.74S FOG     WCI   0

$$



USA.gov is the U.S. government's official web portal to all federal, state and local government web resources and services.